星链-4717 (STARLINK-4717 )

导读

STARLINK-4717是美国SpaceX星链星座的成员,于2022年9月5日发射升空,归属星链低轨互联网卫星星座网络。这类卫星依托近地轨道布局,为全球提供高速互联网覆盖服务,该星箭由SpaceX可复用猎鹰9火箭执行发射任务,是星链大规模组网部署过程中的一颗批量生产卫星。

Basic Information
目录编号:
53705
目录名称:
STARLINK-4717
国际标识:
2022-107F
轨道中心:
EARTH
卫星名称:
星链-4717
卫星全名:
星链-4717 (STARLINK-4717 )
卫星状态:
在轨 (已飞行1381 天)
发射日期:
2022-09-05 UTC
国别 :
美国 (US)
星等 :
--
Orbit Information
数据来源 国际轨道数据 AOE轨道数据
星历时间 2026-06-16T14:34:30+0800
1天前
查看轨道信息
2026-06-14T01:00:00+0800
3天前
查看轨道信息
半长轴 6917.911km 6917.853km
偏心率 0.0001287 0.0001343
轨道倾角 53.161° 53.157°
近地点辐角 81.022° 72.557°
升交点赤经 161.685° 173.220°
平近点角 279.092° 23.983°
近地点 538.883km 538.786km
远地点 540.665km 540.646km
周期 95.438分钟 95.437分钟
每日圈数 15.088301 15.08849
Detailed Information
固有亮度:
5
最大亮度:
2.5
卫星平台:
Starlink v1.5
覆盖范围:
全球
运营商:
太空探索技术公司
运营商所在国:
美国
制造商(研发单位):
太空探索技术公司
制造商所在国:
美国
使用方式:
暂无
Satellite Introduction
星链(Starlink)计划是由太空探索技术公司(SpaceX)提出的一个巨型低轨卫星互联网星座项目,计划在2019年至2024年间在太空搭建由约1.2万颗卫星组成的“星链”网络,其中1584颗将部署在地球上空550千米处的近地轨道,并从2020年开始工作。该卫星仍在工作。
2D Orbit Map
3D Orbit Map
Orbit Altitude Analysis Chart
Orbit Inclination Analysis Chart
Orbit Comprehensive Analysis Chart
View Comprehensive Chart